This demonstration page uses our WeatherBlox Daily Observations layout. Learn more.

Left ArrowRight Arrow

38.80484, -77.04692

Hourly Observations for July 24, 2018

Temp ( °F °C ) Dew Point ( °F °C ) Humidity (%) Winds ( mph kmh ) Pressure ( in mb ) Visibility ( mi km ) Precip ( " mm )
12:52 am 00:52 Cloudy 78 25.6 74 23.3 87 87 SSE 10 17 30.04 1017 10 16 0.00 0.03
1:52 am 01:52 Cloudy 78 25.6 73 22.8 85 85 SE 9 15 30.03 1017 10 16 0.00 0.00
2:16 am 02:16 Cloudy 77 25 72 22.2 85 85 SE 10 17 30.03 1017 10 16 0.00 0.00
2:52 am 02:52 Cloudy 77 25 72 22.2 85 85 SSE 9 15 30.03 1017 10 16 0.00 0.00
3:04 am 03:04 Cloudy 77 25 72 22.2 85 85 SE 7 11 30.03 1017 10 16 0.00 0.00
3:52 am 03:52 Cloudy 77 25 72 22.2 85 85 SSE 10 17 30.04 1017 10 16 0.00 0.00
4:37 am 04:37 Cloudy 77 25 72 22.2 85 85 SE 5 7 30.03 1017 10 16 0.00 0.00
4:47 am 04:47 Cloudy with Light Rain 77 25 73 23 89 89 SE 6 9 30.03 1017 10 16 0.00 0.03
4:52 am 04:52 Cloudy with Light Rain 77 25 73 22.8 88 88 SE 6 9 30.04 1017 10 16 0.00 0.03
5:08 am 05:08 Cloudy 77 25 73 22.8 88 88 SE 8 13 30.03 1017 10 16 0.00 0.03
5:19 am 05:19 Cloudy 77 25 72 22.2 85 85 ESE 8 13 30.03 1017 10 16 0.00 0.03
5:43 am 05:43 Cloudy with Light Rain 77 25 72 22.2 85 85 SE 10 17 30.03 1017 10 16 0.00 0.03
5:45 am 05:45 Cloudy with Heavy Rain 77 25 72 22.2 85 85 SE 12 19 30.03 1017 3 5 0.00 0.03
5:50 am 05:50 Cloudy with Light Rain 77 25 72 22 83 83 SE 13 20 30.03 1017 7 11 0.02 0.51
5:52 am 05:52 Cloudy with Light Rain 77 25 72 22.2 85 85 SE 13 20 30.04 1017 7 11 0.02 0.51
6:09 am 06:09 Cloudy 77 25 72 22.2 85 85 SE 15 24 30.06 1018 10 16 0.00 0.03
6:49 am 06:49 Cloudy with Light Rain 77 25 72 22 83 83 SSE 10 17 30.06 1018 10 16 0.00 0.03
6:52 am 06:52 Cloudy with Light Rain 77 25 72 22.2 85 85 SSE 10 17 30.06 1018 10 16 0.00 0.03
7:47 am 07:47 Cloudy with Rain 75 24 72 22 89 89 S 9 15 30.06 1018 4 6 0.04 1.02
7:52 am 07:52 Cloudy with Rain 75 23.9 72 22.2 90 90 S 8 13 30.06 1018 4 6 0.05 1.27
8:02 am 08:02 Cloudy with Rain 75 23.9 72 22.2 90 90 SSE 6 9 30.06 1018 6 10 0.01 0.25
8:39 am 08:39 Cloudy with Light Rain 75 23.9 71 21.7 88 88 SSE 7 11 30.06 1018 7 11 0.09 2.29
8:52 am 08:52 Cloudy with Light Rain 76 24.4 71 21.7 85 85 SSE 9 15 30.06 1018 10 16 0.09 2.29
9:48 am 09:48 Cloudy with Rain 75 24 72 22 89 89 SE 7 11 30.06 1018 5 8 0.09 2.29
9:52 am 09:52 Mostly Cloudy with Rain 75 23.9 71 21.7 88 88 SSE 7 11 30.07 1018 5 8 0.10 2.54
10:34 am 10:34 Cloudy 77 25 72 22.2 85 85 SSE 6 9 30.06 1018 10 16 0.03 0.76
10:52 am 10:52 Cloudy 77 25 72 22.2 85 85 SSE 7 11 30.07 1018 10 16 0.03 0.76
11:20 am 11:20 Cloudy 79 26.1 73 22.8 82 82 SE 12 19 30.06 1018 10 16 0.00 0.00
11:52 am 11:52 Cloudy 80 26.7 73 22.8 79 79 SSE 12 19 30.06 1018 10 16 0.00 0.00
12:52 pm 12:52 Cloudy with Light Rain 81 27.2 73 22.8 77 77 SSE 13 20 30.05 1018 10 16 0.00 0.03
1:52 pm 13:52 Cloudy 83 28.3 73 22.8 72 72 SSE 14 22 30.03 1017 10 16 0.00 0.03
2:52 pm 14:52 Cloudy with Light Rain 80 26.7 72 22.2 76 76 SE 12 19 30.02 1017 10 16 0.00 0.03
3:52 pm 15:52 Mostly Cloudy 82 27.8 73 22.8 74 74 SSE 12 19 30.01 1016 10 16 0.00 0.03
4:52 pm 16:52 Mostly Cloudy 80 26.7 73 22.8 79 79 SSE 10 17 30.01 1016 10 16 0.00 0.03
5:12 pm 17:12 Cloudy with Light Rain 78 25.6 73 22.8 85 85 SSE 12 19 30.00 1016 4 6 0.00 0.03
5:15 pm 17:15 Cloudy with Rain 78 25.6 73 22.8 85 85 SSE 10 17 30.00 1016 3 4 0.01 0.25
5:21 pm 17:21 Cloudy with Light Rain 78 25.6 73 22.8 85 85 SSE 8 13 30.00 1016 3 5 0.02 0.51
5:25 pm 17:25 Cloudy with Light Rain 78 25.6 74 23.3 87 87 SSE 7 11 30.00 1016 9 14 0.02 0.51
5:52 pm 17:52 Mostly Cloudy with Light Rain 79 26.1 73 22.8 82 82 ESE 7 11 30.00 1016 10 16 0.02 0.51
6:52 pm 18:52 Cloudy with Light Rain 78 25.6 73 22.8 85 85 SSE 8 13 29.99 1016 10 16 0.00 0.03
7:23 pm 19:23 Mostly Cloudy with Light Rain 78 25.6 73 22.8 85 85 SSE 7 11 30.00 1016 10 16 0.00 0.03
7:33 pm 19:33 Mostly Cloudy with Light Rain 78 25.6 73 22.8 85 85 SSE 3 6 30.00 1016 10 16 0.00 0.03
7:52 pm 19:52 Cloudy with Light Rain 77 25 73 22.8 88 88 SSE 7 11 29.99 1016 10 16 0.01 0.25
8:52 pm 20:52 Mostly Cloudy 77 25 72 22.2 85 85 SSE 8 13 29.99 1016 10 16 0.00 0.03
9:52 pm 21:52 Mostly Cloudy 76 24.4 72 22.2 88 88 SSE 5 7 30.00 1016 10 16 0.00 0.03
10:02 pm 22:02 Mostly Cloudy 76 24.4 72 22.2 88 88 SE 5 7 30.00 1016 10 16 0.00 0.00
10:06 pm 22:06 Mostly Cloudy 76 24.4 72 22.2 88 88 SE 5 7 30.00 1016 10 16 0.00 0.00
10:52 pm 22:52 Mostly Cloudy 76 24.4 72 22.2 88 88 Calm 29.99 1016 10 16 0.00 0.03
11:52 pm 23:52 Cloudy 76 24.4 72 22.2 88 88 SSE 5 7 29.98 1015 10 16 0.00 0.00
11:59 pm 23:59 Cloudy 76 24.4 72 22.2 88 88 SSE 7 11 30.00 1016 10 16 0.00 0.00

Powered by AerisWeather